Wind_Speed
6 6 5 4 3 2 3 5 6 6 5 5 3 1 2 14 14 6 11 11 11 11 5 5 1 4 4 4 5 2 3 1 2 2 4 1 4 5 2 5 2 3 5 9 15
5 6 6 4 3 1 1 2 4 6 7 6 6 4 3 1 3 19 14 13 10 4 3 1 3 2 3 3 4 4 3 3 3 3 2 2 4 4 4 2 2 3 4 10 13
4 5 5 6 3 2 2 2 2 5 9 6 5 3 4 2 3 7 18 14 8 2 2 2 3 2 6 6 6 5 4 5 3 4 3 3 2 3 6 4 4 8 10 12 14
4 5 6 4 4 4 4 4 3 4 6 7 4 3 0 0 1 7 16 12 8 2 1 1 1 2 4 4 3 6 4 2 1 2 2 3 4 6 3 5 3 5 8 10 11
3 3 4 4 4 4 5 5 4 3 2 8 6 2 0 4 4 10 13 11 9 3 5 4 4 3 5 6 9 9 4 1 2 1 2 3 4 7 5 2 2 4 6 8 9
4 6 6 6 5 4 4 5 3 2 1 7 7 2 2 1 3 10 11 12 12 7 10 8 6 9 9 5 4 5 3 2 0 1 2 6 6 3 5 3 6 5 6 6 7
4 5 7 8 4 4 3 2 2 3 1 4 4 5 10 5 4 7 10 11 12 9 6 7 3 2 5 7 4 6 1 4 1 4 2 7 7 6 3 5 6 6 5 4 6
4 5 9 8 5 4 2 2 1 2 3 3 4 3 4 2 3 7 6 5 11 9 10 5 8 9 4 8 4 2 1 3 3 5 1 6 4 2 4 6 8 6 5 4 5
3 7 9 9 7 6 4 2 1 2 6 3 3 0 4 2 3 7 7 4 4 5 6 4 4 4 4 4 3 2 4 5 1 2 5 3 10 2 5 7 9 7 6 5 5
3 4 9 9 8 5 1 1 2 0 3 2 3 2 2 2 4 7 5 5 2 2 1 3 2 4 3 4 1 3 4 6 6 6 8 10 11 9 7 8 10 9 7 7 6
3 3 7 10 8 3 4 1 3 2 12 5 3 2 2 4 5 5 6 4 1 2 2 4 2 5 5 6 8 2 4 8 7 5 9 6 12 9 4 5 6 8 7 7 6
5 5 5 7 7 4 3 3 2 3 8 3 2 3 3 2 1 10 10 2 1 2 3 1 4 3 3 1 3 1 4 5 7 2 7 10 13 4 3 2 4 6 7 7 6
6 6 5 6 2 1 4 2 5 4 2 3 2 2 2 3 3 7 8 2 4 4 4 2 4 2 1 1 2 2 2 6 5 11 9 12 7 6 5 3 1 4 5 5 5
8 7 7 4 2 2 0 3 3 1 2 3 2 2 1 1 3 3 6 3 2 3 5 5 2 1 2 4 6 1 2 4 5 6 2 6 3 5 2 3 2 2 4 4 2
10 7 7 3 4 3 4 4 1 2 2 3 3 1 1 2 1 3 3 2 3 3 2 2 2 1 2 3 6 3 3 2 2 3 7 1 4 4 2 3 4 2 3 4 3
11 8 5 3 1 4 8 5 2 4 5 3 3 2 3 3 2 1 1 5 2 2 8 4 1 2 4 1 4 5 4 3 2 1 3 1 3 1 4 4 2 2 2 3 4
13 9 5 4 1 8 10 1 4 3 2 4 3 5 3 3 2 2 1 2 1 2 0 1 2 1 2 3 3 4 4 3 2 1 1 2 4 6 2 2 3 4 5 4 4
14 9 6 6 6 9 5 1 3 3 5 1 4 7 3 4 2 0 1 2 2 1 2 2 3 1 2 2 3 3 5 2 4 3 3 2 5 1 2 1 4 5 5 5 5
14 7 4 6 10 10 2 3 7 7 8 11 5 3 2 2 1 1 3 1 2 4 4 3 2 1 2 2 2 1 1 2 0 2 3 2 5 5 2 4 3 3 2 5 4
12 6 3 9 10 6 2 6 5 3 6 6 4 3 5 7 5 2 2 2 3 1 1 1 1 0 1 2 2 2 3 1 2 3 4 3 4 2 5 6 4 3 3 3 3
11 4 3 13 10 3 4 7 5 3 3 6 4 5 4 6 5 4 1 3 3 5 2 3 1 1 2 4 3 3 2 2 1 1 3 4 1 3 4 5 4 2 1 5 5
12 3 7 16 4 1 4 5 3 6 1 3 1 3 7 6 6 3 4 1 4 7 3 4 1 2 2 1 1 3 3 4 3 2 1 2 6 1 3 1 2 3 3 4 4
6 4 3 3 5 3 3 3 3 5 6 8 6 1 2 6 5 4 3 2 4 4 2 4 2 1 2 2 0 4 5 4 3 2 5 2 2 3 3 4 6 7 5 4 4
4 4 3 4 1 5 5 4 4 1 3 2 4 3 5 3 4 8 5 3 3 2 1 3 2 4 3 2 3 4 6 12 5 3 5 8 10 10 7 7 6 5 4 5 5
3 4 5 7 6 7 11 13 8 6 2 5 2 7 7 4 3 3 4 4 4 5 3 2 4 2 3 4 3 3 4 11 12 10 8 2 7 15 5 7 7 5 5 4 6
6 5 2 4 12 20 10 9 16 7 11 6 6 13 5 8 10 9 8 7 5 6 5 3 2 1 4 1 4 6 10 12 17 10 14 13 23 16 13 7 4 7 6 6 6
4 3 2 6 9 13 17 13 15 11 4 1 11 6 5 1 11 10 7 7 9 9 9 6 3 2 4 1 3 8 10 16 8 8 11 11 13 7 6 4 6 7 9 8 8
Wind_Direction
46 31 31 51 58 62 42 23 4 352 1 8 328 206 87 59 55 55 43 332 320 340 351 293 120 76 82 76 40 313 245 84 54 309 61 16 312 97 305 294 25 33 19 340 338
35 30 25 29 24 103 337 26 16 353 352 344 317 274 244 263 6 50 357 349 343 5 23 233 75 61 77 60 31 355 321 54 22 20 336 343 325 330 296 302 211 235 8 349 344
43 27 29 6 37 335 286 310 356 328 337 355 344 311 234 268 253 9 351 357 358 74 47 44 71 53 73 60 16 24 55 124 86 21 333 353 283 339 314 272 42 328 335 340 341
40 18 12 20 11 351 331 313 312 339 342 355 353 15 100 163 280 344 353 0 22 101 344 44 241 83 75 63 61 112 75 3 116 44 312 331 327 296 309 13 346 326 326 326 333
32 25 8 359 342 327 312 314 303 336 358 351 342 335 341 93 42 345 6 17 23 65 57 64 62 78 97 99 86 90 105 91 130 176 4 313 281 316 265 227 235 289 298 315 316
35 360 360 353 342 344 322 315 287 308 301 341 355 347 259 132 360 350 7 29 26 61 67 68 82 93 85 69 35 103 123 152 241 303 281 298 299 254 166 225 244 259 297 309 315
359 355 355 343 346 0 352 54 330 313 9 348 1 49 62 83 4 25 29 30 30 44 73 45 26 255 118 114 109 118 166 236 257 345 253 319 217 230 146 217 261 265 281 303 305
345 351 339 343 340 338 297 2 9 320 347 340 30 53 74 5 17 23 15 28 36 49 79 55 69 78 66 121 132 158 243 274 102 332 156 311 14 202 197 247 267 282 284 284 298
336 341 331 341 337 335 290 280 116 76 53 6 26 68 100 31 15 357 14 358 349 31 52 63 63 75 152 201 152 156 339 340 204 53 322 292 318 106 241 257 275 278 280 282 288
311 337 327 331 334 356 274 120 117 82 25 25 52 139 80 30 343 344 343 351 3 313 196 33 86 119 49 237 40 351 328 332 312 30 325 285 277 306 260 247 275 277 277 279 288
272 318 316 329 333 347 175 314 217 151 48 55 10 47 55 335 35 8 357 318 287 61 24 22 80 63 45 41 92 72 307 302 322 20 323 289 305 304 343 277 265 270 277 286 292
264 287 309 329 330 328 180 260 23 100 98 59 76 82 62 349 342 31 8 294 339 78 340 199 83 82 56 18 96 62 324 354 307 302 314 298 304 254 264 314 305 305 304 300 291
251 275 302 321 331 338 288 205 166 140 90 86 66 54 9 357 58 1 359 352 40 63 40 42 87 128 306 278 290 73 4 352 307 315 265 285 247 218 188 251 277 287 299 287 271
243 269 297 323 85 169 162 175 180 81 112 151 169 105 149 83 82 6 11 352 49 112 70 71 101 176 272 289 308 286 93 307 308 330 336 342 316 182 195 308 203 305 324 338 319
239 257 286 292 141 227 164 166 167 296 46 116 105 68 115 55 78 74 18 291 63 98 224 102 151 199 274 359 318 33 298 298 297 294 313 197 245 109 179 307 36 6 331 327 324
229 240 267 292 222 169 152 133 281 51 254 151 127 151 168 79 73 10 93 65 44 90 55 84 73 345 6 340 302 318 251 223 244 286 254 193 294 71 342 332 335 4 358 317 317
221 231 225 211 318 156 148 200 46 155 304 187 163 167 125 87 83 15 18 155 233 73 288 201 140 121 321 271 214 272 291 325 285 234 291 159 259 270 292 258 281 300 314 314 301
212 221 232 213 180 162 123 181 138 223 214 133 131 137 139 142 103 50 273 242 182 103 134 203 267 194 30 335 342 8 318 126 291 325 355 126 237 195 131 205 264 263 274 287 273
195 206 241 204 176 162 169 129 208 202 158 149 138 139 122 88 158 150 221 237 78 187 172 143 229 130 37 355 329 59 269 48 138 144 278 250 252 255 207 214 202 237 260 278 295
166 181 208 177 176 136 86 238 216 172 134 155 157 201 143 159 161 104 194 117 148 136 77 156 309 326 69 262 120 250 130 120 80 302 271 210 277 284 204 209 197 233 265 312 307
156 189 169 166 147 185 187 223 224 200 161 162 167 137 170 156 130 136 235 146 163 150 174 121 174 77 276 203 168 162 207 219 136 240 297 315 256 186 165 179 195 170 306 322 322
159 192 165 160 154 209 186 196 174 175 166 126 216 125 162 161 134 163 209 145 145 158 176 155 235 217 231 85 326 279 278 249 184 171 230 291 275 321 111 141 238 240 263 311 314
164 125 146 179 190 207 290 232 252 167 184 161 186 185 175 156 116 148 129 50 156 183 172 163 218 280 266 194 195 242 196 229 80 103 210 252 271 0 283 263 250 253 256 285 284
137 138 132 212 218 173 148 217 217 194 153 151 125 112 128 70 355 161 140 140 177 189 96 152 232 226 275 85 98 196 209 205 200 186 178 228 292 282 281 263 263 257 263 263 250
157 199 187 187 218 204 195 175 179 191 215 187 163 229 162 112 46 173 116 129 169 183 166 223 247 210 261 240 240 249 190 195 208 215 213 209 229 266 243 253 249 239 268 233 254
142 148 213 169 172 192 198 212 207 170 161 209 221 189 221 152 190 189 155 180 182 170 182 181 256 181 271 179 233 263 245 213 223 238 261 275 285 277 294 273 223 238 237 238 235
126 97 181 173 169 180 210 201 212 167 205 305 182 140 178 216 88 46 54 92 148 146 179 175 194 185 263 298 287 269 229 210 192 213 214 217 234 259 279 266 257 244 210 220 223
Height
822 823 822 819 819 820 820 820 820 820 817 815 815 813 812 812 811 811 810 814 809 805 804 805 802 799 798 798 799 797 794 802 813 812 814 816 817 818 823 819 824 828 830 832 830
823 822 823 820 820 818 818 817 817 819 818 815 815 814 813 814 813 813 817 812 809 805 805 804 802 799 800 800 801 798 800 816 819 818 817 818 820 821 821 817 819 825 828 832 832
822 823 822 822 818 821 819 818 815 817 819 816 814 813 813 814 814 817 815 811 808 807 806 807 805 802 803 804 810 811 812 820 823 823 822 822 820 824 822 819 825 831 831 832 831
823 824 823 820 819 819 819 818 816 815 817 817 815 813 813 813 815 817 815 810 808 807 807 807 805 804 808 813 813 820 824 822 826 828 825 824 824 824 826 826 832 832 833 832 830
823 821 822 821 820 817 818 817 817 815 816 817 815 813 813 814 821 819 815 812 810 809 808 807 807 805 811 817 814 819 826 827 828 830 829 829 825 827 825 827 831 833 832 830 830
821 825 823 822 819 816 817 816 816 814 814 816 815 814 813 816 822 820 817 814 813 811 810 807 808 809 815 821 818 823 827 829 829 829 830 830 823 828 822 827 826 827 827 828 829
823 824 823 824 818 817 817 815 816 816 813 814 814 815 815 824 823 821 820 818 816 814 813 815 814 811 815 826 825 826 830 830 827 828 826 829 824 821 820 824 822 821 824 826 827
822 821 825 821 819 817 817 815 815 815 814 814 814 814 823 824 823 823 822 822 821 818 817 818 817 818 820 826 826 827 830 819 827 828 825 828 807 815 818 820 818 817 819 821 822
820 822 826 820 818 816 816 815 815 815 814 815 815 813 824 825 825 825 824 823 823 822 820 819 819 822 826 821 819 824 818 822 819 831 832 828 814 813 817 818 817 814 814 816 819
819 819 825 822 817 815 815 816 816 814 814 816 816 818 826 828 827 827 826 825 824 822 821 820 818 819 818 814 821 828 825 826 825 827 831 822 814 807 808 814 814 810 810 813 815
817 817 823 822 817 815 817 817 818 816 817 827 829 827 828 831 827 829 827 826 824 822 822 825 818 828 836 835 830 835 834 830 820 833 836 815 814 806 808 810 809 807 808 809 811
819 819 818 818 817 816 816 816 815 818 822 829 829 830 830 830 827 829 829 827 822 826 829 825 834 842 844 842 836 835 833 828 825 834 836 817 813 805 808 808 809 808 806 806 808
817 818 817 816 816 817 819 817 815 815 812 828 830 829 832 831 832 832 831 831 829 831 830 829 846 848 844 842 835 838 840 843 846 836 826 826 802 802 804 809 808 809 808 807 807
816 819 817 815 817 817 818 818 818 815 821 825 827 829 831 830 833 836 837 837 835 836 837 844 852 849 846 844 845 835 850 850 846 842 816 822 800 795 798 800 804 805 806 807 808
817 816 818 817 812 818 817 819 819 820 842 829 827 832 830 829 836 835 839 834 835 841 841 847 850 849 847 849 852 845 852 849 847 844 838 818 814 786 798 793 796 801 807 807 808
814 816 816 817 815 814 816 818 822 836 830 833 825 827 827 830 834 835 836 839 842 840 844 852 857 855 854 855 856 855 849 846 846 842 839 828 820 781 789 795 796 796 801 806 806
813 815 814 815 817 815 815 821 841 836 830 828 825 822 825 830 832 835 836 835 836 845 859 850 851 858 860 853 854 852 841 842 837 842 817 835 828 785 784 789 796 798 800 801 803
811 813 813 814 815 817 816 822 836 829 828 821 820 820 820 825 833 835 835 832 844 847 846 840 838 855 861 856 852 850 845 839 835 816 809 838 814 780 786 791 795 797 798 801 801
810 813 814 811 815 816 815 837 819 813 806 813 825 821 827 829 829 830 832 831 839 845 847 846 845 863 865 863 861 853 847 856 859 888 846 801 792 785 788 788 792 794 797 796 799
807 811 811 810 816 816 823 819 814 797 802 804 808 811 825 822 822 826 828 835 842 850 854 852 844 870 865 865 863 858 859 850 855 838 818 804 801 778 789 785 787 791 792 795 798
805 806 808 811 815 814 826 819 804 801 798 804 811 813 802 812 812 820 825 837 840 852 853 861 853 866 868 862 846 856 852 853 849 855 837 818 776 774 776 779 784 788 794 796 798
797 809 807 810 819 826 818 806 795 801 804 800 803 800 799 804 813 819 822 826 840 845 844 851 852 843 851 867 866 860 847 841 829 846 853 860 803 785 781 783 790 791 794 796 798
790 800 806 808 811 816 816 799 800 801 799 800 801 800 803 802 819 818 828 846 845 845 844 848 846 839 844 861 866 861 847 844 849 850 843 839 786 796 792 794 794 795 794 797 798
784 799 805 807 803 797 807 805 799 800 796 797 798 802 804 817 811 823 825 846 850 847 853 850 856 841 816 826 835 853 851 843 844 842 828 824 808 795 804 804 798 799 801 800 800
772 778 784 796 802 791 785 787 790 802 800 798 802 799 798 824 832 823 825 844 849 850 850 849 847 854 845 842 840 835 839 846 847 822 818 808 823 793 800 801 799 799 797 799 802
763 770 782 782 770 786 784 782 776 785 791 794 794 788 796 802 800 818 821 828 827 851 849 849 843 857 841 855 853 848 838 839 838 832 826 824 811 784 780 783 794 796 798 797 795
754 757 759 764 766 775 767 770 771 776 789 785 786 793 800 797 807 817 817 819 823 835 842 847 848 849 826 853 854 826 825 815 819 819 810 813 779 776 781 785 786 785 787 791 788